STARLINK-2211, 47778

Orbit data source: Space-Track

STARLINK-2211, 47778 is a payload satellite owned by SpaceX/Seattle (US) in LEO that was launched on Thu, 04 Mar 2021 UTC via an FALCON 9 launch vehicle from the Air Force Eastern Test Range (AFETR). Payload-class satellites include a variety of spacecraft equipped with specific instruments for various scientific and technological missions. These include communications satellites like Starlink; space stations such as the ISS; scientific satellites like the Hubble; Earth observation satellites from companies like Planet Labs, Umbra, and HawkEye 360; GPS; miniature CubeSats for education and research; and military/defense satellites.

Loading next visibility...
Identifier
47778, 2021-017BJ
Orbit
LEO
Country
Flag of USUS
Related business
Manufacturer
SpaceX/Seattle
Mission
Partially operational Commercial Communications
Bus & Motor
STARLINK, Unknown motor
Mass
260 kg wet, ~248 kg dry
Launch date (UTC)
2021-03-04 (5 years ago)
Launch vehicle
FALCON 9
Launch site
Air Force Eastern Test Range (AFETR)
Object type
Payload
Rocket body
Debris
Shape & HBR
Box + 1 Pan, 10.1 m
Radar Cross Section
13.562 m², Large (>1 m²)

Expand to show TLE details & history
Last TLE update: 14 hours ago

TLE from 14 hours ago
0 STARLINK-2211
1 47778U 21017BJ  26235.89585519  .00079551  00000-0  67817-3 0  9991
2 47778  53.1564 124.1657 0001250 179.3540 180.7479 15.68873140303782
Epoch: 2026-08-23T21:30Z
TLE epoch observation values (Epoch: 2026-08-23T21:30:01.888Z)
Latitude
-0.00005°
Longitude
-170.52754°
Altitude
363.879 km
Speed
7.692 km/s
True Right ascension
08h 16m 39s
True Declination
0° 00' 00"
Sunlit
Object was in daylight at epoch
Visualization orbit readout
Latitude
Unknown
Longitude
Unknown
Altitude
Unknown
Speed
Unknown
Apparent Right ascension
Unknown
Apparent Declination
Unknown
Sunlit
N/A
Visualization observer readout
Local Sidereal Time
02:50:42
Azimuth
Unknown
Elevation
Unknown
Doppler factor
Unknown
Orbital elements
Apogee altitude
363.226 km
Perigee altitude
361.541 km
Semi-major axis
6,740.521 km
Eccentricity
0.00013
Inclination
53.1564°
RAAN
124.1657°
Arg. of periapsis
179.354°
True anomaly
180.74771°
Mean anomaly
180.7479°
Eccentric anomaly
180.74781°
Mean motion
3.92196 °/min
Orbital period
91.79 mins
BSTAR
0.00067817
Loading maneuver chart data...
Computing Atmospheric mass density...

Documentation

Showing up to 5 results
|